Showing default

CHEOPS, 44874

Orbit data source: Space-Track

CHEOPS, 44874 is a payload satellite owned by ESA (ESA) in SSO that was launched on Wed, 18 Dec 2019 UTC via a SOYUZ-ST-A launch vehicle from the French Guiana (FRGUI). Payload-class satellites include a variety of spacecraft equipped with specific instruments for various scientific and technological missions. These include communications satellites like Starlink; space stations such as the ISS; scientific satellites like the Hubble; Earth observation satellites from companies like Planet Labs, Umbra, and HawkEye 360; GPS; miniature CubeSats for education and research; and military/defense satellites.

Loading next visibility...
Identifier
44874, 2019-092B
Orbit
SSO
Country
Flag of ESAESA
Related business
Manufacturer
Airbus Barajas
Mission
Operational Civil Astronomy
Bus & Motor
SEOSAT, AOCS
Mass
273 kg wet, 273 kg dry
Launch date (UTC)
2019-12-18 (6 years ago)
Launch vehicle
SOYUZ-ST-A
Launch site
French Guiana (FRGUI)
Object type
Payload
Rocket body
Debris
Shape & HBR
Hex Cyl + 1 Pan, 1.2 m
Radar Cross Section
2.624 m², Large (>1 m²)

Expand to show TLE details & history
Last TLE update: 13 hours ago

TLE from 13 hours ago
0 CHEOPS
1 44874U 19092B   25310.08590064  .00000532  00000-0  11613-3 0  9996
2 44874  98.1496 136.4734 0011858  79.8591 280.3947 14.61727042313303
Epoch: 2025-11-06T02:03Z
TLE epoch observation values (Epoch: 2025-11-06T02:03:41.815Z)
Latitude
-0.00003°
Longitude
59.9999°
Altitude
689.09 km
Speed
7.513 km/s
True Right ascension
09h 05m 53s
True Declination
0° 00' 00"
Sunlit
Object was in daylight at epoch
Visualization orbit readout
Latitude
Unknown
Longitude
Unknown
Altitude
Unknown
Speed
Unknown
Apparent Right ascension
Unknown
Apparent Declination
Unknown
Sunlit
N/A
Visualization observer readout
Local Sidereal Time
11:19:45
Azimuth
Unknown
Elevation
Unknown
Doppler factor
Unknown
Orbital elements
Apogee altitude
693.055 km
Perigee altitude
676.304 km
Semi-major axis
7,062.817 km
Eccentricity
0.00119
Inclination
98.1496°
RAAN
136.4734°
Arg. of periapsis
79.8591°
True anomaly
280.26101°
Mean anomaly
280.3947°
Eccentric anomaly
280.32786°
Mean motion
3.65659 °/min
Orbital period
98.45 mins
BSTAR
0.00011613
Loading maneuver chart data...
Computing Atmospheric mass density...
Loading historical data...
Loading historical data...
Loading historical data...
Loading historical data...
Loading historical data...
Loading historical data...
Loading historical data...

Documentation

Showing up to 5 results
|